Showing default

AUTCUBE 2, 43681

Orbit data source: Space-Track

AUTCUBE 2, 43681 is a payload satellite in SSO that was launched on Mon, 29 Oct 2018 UTC via an H-IIA 202 launch vehicle from the Tanegashima Space Center (TNSTA). Payload-class satellites include a variety of spacecraft equipped with specific instruments for various scientific and technological missions. These include communications satellites like Starlink; space stations such as the ISS; scientific satellites like the Hubble; Earth observation satellites from companies like Planet Labs, Umbra, and HawkEye 360; GPS; miniature CubeSats for education and research; and military/defense satellites.

Loading next visibility...
Identifier
43681, 2018-084K
Orbit
SSO
Country
Flag of TBDTBD
Related business
Manufacturer
AUT
Mission
Operational Amateur Technology
Bus & Motor
CUBESAT 1U, Unknown motor
Mass
1.6 kg wet, 1.6 kg dry
Launch date (UTC)
2018-10-29 (8 years ago)
Launch vehicle
H-IIA 202
Launch site
Tanegashima Space Center (TNSTA)
Object type
Payload
Rocket body
Debris
Shape & HBR
Box, 0.1 m
Radar Cross Section
0.015 m², Small (<0.1 m²)

Expand to show TLE details & history
Last TLE update: 11 hours ago

TLE from 11 hours ago
0 AUTCUBE 2
1 43681U 18084K   26124.55880713  .00003767  00000-0  23742-3 0  9999
2 43681  98.0748 328.4218 0008934 181.2608 178.8599 15.09792337410343
Epoch: 2026-05-04T13:24Z
TLE epoch observation values (Epoch: 2026-05-04T13:24:40.936Z)
Latitude
0.00004°
Longitude
-95.19504°
Altitude
546.069 km
Speed
7.586 km/s
True Right ascension
21h 53m 41s
True Declination
0° 00' 00"
Sunlit
Object was in daylight at epoch
Visualization orbit readout
Latitude
Unknown
Longitude
Unknown
Altitude
Unknown
Speed
Unknown
Apparent Right ascension
Unknown
Apparent Declination
Unknown
Sunlit
N/A
Visualization observer readout
Local Sidereal Time
08:23:35
Azimuth
Unknown
Elevation
Unknown
Doppler factor
Unknown
Orbital elements
Apogee altitude
540.018 km
Perigee altitude
527.668 km
Semi-major axis
6,911.98 km
Eccentricity
0.00089
Inclination
98.0748°
RAAN
328.4218°
Arg. of periapsis
181.2608°
True anomaly
178.86193°
Mean anomaly
178.8599°
Eccentric anomaly
178.86092°
Mean motion
3.77693 °/min
Orbital period
95.32 mins
BSTAR
0.00023742
Loading maneuver chart data...
Computing Atmospheric mass density...
Loading historical data...
Loading historical data...
Loading historical data...
Loading historical data...
Loading historical data...
Loading historical data...
Loading historical data...

Documentation

Showing up to 5 results
|